Time,TemperatureF,DewpointF,PressureIn,WindDirection,WindDirectionDegrees,WindSpeedMPH,WindSpeedGustMPH,Humidity,HourlyPrecipIn,Conditions,Clouds,dailyrainin,SolarRadiationWatts/m^2,SoftwareType,DateUTC
2013-03-04 02:00:00,27.0,24.0,30.14,NE,46,1.0,-999.0,87,-99.99,,,-99.99,0.000000,,2013-03-04 08:00:00,
2013-03-04 02:52:00,27.0,24.0,30.14,NE,46,1.0,-999.0,87,-99.99,,,-99.99,0.000000,,2013-03-04 08:52:00,
2013-03-04 03:00:00,27.0,25.0,30.16,NE,44,2.0,-999.0,90,-99.99,,,-99.99,0.000000,,2013-03-04 09:00:00,
2013-03-04 03:52:00,27.0,25.0,30.16,NE,44,2.0,-999.0,90,-99.99,,,-99.99,0.000000,,2013-03-04 09:52:00,
2013-03-04 04:00:00,27.0,24.0,30.14,NE,35,2.0,-999.0,90,-99.99,,,-99.99,0.000000,,2013-03-04 10:00:00,
2013-03-04 04:52:00,27.0,24.0,30.14,NE,35,2.0,-999.0,90,-99.99,,,-99.99,0.000000,,2013-03-04 10:52:00,
2013-03-04 05:00:00,26.0,24.0,30.14,NE,41,1.0,-999.0,91,-99.99,,,-99.99,0.000000,,2013-03-04 11:00:00,
2013-03-04 05:52:00,26.0,24.0,30.14,NE,41,1.0,-999.0,91,-99.99,,,-99.99,0.000000,,2013-03-04 11:52:00,
2013-03-04 06:00:00,25.0,23.0,30.15,NE,45,1.0,-999.0,92,-99.99,,,-99.99,0.090000,,2013-03-04 12:00:00,
2013-03-04 06:53:00,25.0,23.0,30.15,NE,45,1.0,-999.0,92,-99.99,,,-99.99,0.090000,,2013-03-04 12:53:00,
2013-03-04 07:00:00,28.0,25.0,30.15,NE,35,2.0,-999.0,87,-99.99,,,-99.99,44.349998,,2013-03-04 13:00:00,
2013-03-04 07:52:00,28.0,25.0,30.15,NE,35,2.0,-999.0,87,-99.99,,,-99.99,44.349998,,2013-03-04 13:52:00,
2013-03-04 08:00:00,36.0,24.0,30.17,NNE,20,2.0,-999.0,63,-99.99,,,-99.99,227.399994,,2013-03-04 14:00:00,
2013-03-04 08:52:00,36.0,24.0,30.17,NNE,20,2.0,-999.0,63,-99.99,,,-99.99,227.399994,,2013-03-04 14:52:00,
2013-03-04 09:00:00,43.0,24.0,30.18,NNW,336,2.0,-999.0,47,-99.99,,,-99.99,376.100006,,2013-03-04 15:00:00,
2013-03-04 09:52:00,43.0,24.0,30.18,NNW,336,2.0,-999.0,47,-99.99,,,-99.99,376.100006,,2013-03-04 15:52:00,
2013-03-04 10:00:00,47.0,18.0,30.17,SSW,200,3.0,-999.0,31,-99.99,,,-99.99,521.200012,,2013-03-04 16:00:00,
2013-03-04 10:52:00,47.0,18.0,30.17,SSW,200,3.0,-999.0,31,-99.99,,,-99.99,521.200012,,2013-03-04 16:52:00,
2013-03-04 11:00:00,49.0,19.0,30.14,SE,139,4.0,-999.0,31,-99.99,,,-99.99,431.600006,,2013-03-04 17:00:00,
2013-03-04 11:52:00,49.0,19.0,30.14,SE,139,4.0,-999.0,31,-99.99,,,-99.99,431.600006,,2013-03-04 17:52:00,
2013-03-04 12:00:00,50.0,21.0,30.12,SSE,157,5.0,-999.0,32,-99.99,,,-99.99,431.600006,,2013-03-04 18:00:00,
2013-03-04 12:52:00,50.0,21.0,30.12,SSE,157,5.0,-999.0,32,-99.99,,,-99.99,431.600006,,2013-03-04 18:52:00,
2013-03-04 13:00:00,53.0,21.0,30.07,SSE,151,6.0,-999.0,28,-99.99,,,-99.99,574.799988,,2013-03-04 19:00:00,
2013-03-04 13:52:00,53.0,21.0,30.07,SSE,151,6.0,-999.0,28,-99.99,,,-99.99,574.799988,,2013-03-04 19:52:00,
2013-03-04 14:00:00,54.0,22.0,30.03,SSE,148,5.0,-999.0,28,-99.99,,,-99.99,407.000000,,2013-03-04 20:00:00,
2013-03-04 14:53:00,54.0,22.0,30.03,SSE,148,5.0,-999.0,28,-99.99,,,-99.99,407.000000,,2013-03-04 20:53:00,
2013-03-04 15:00:00,55.0,23.0,30.02,SE,138,4.0,-999.0,29,-99.99,,,-99.99,313.299988,,2013-03-04 21:00:00,
2013-03-04 15:53:00,55.0,23.0,30.02,SE,138,4.0,-999.0,29,-99.99,,,-99.99,313.299988,,2013-03-04 21:53:00,
2013-03-04 16:00:00,55.0,25.0,30.00,SE,124,5.0,-999.0,32,-99.99,,,-99.99,123.699997,,2013-03-04 22:00:00,
2013-03-04 16:52:00,55.0,25.0,30.00,SE,124,5.0,-999.0,32,-99.99,,,-99.99,123.699997,,2013-03-04 22:52:00,
2013-03-04 17:00:00,53.0,25.0,29.97,ESE,114,5.0,-999.0,34,-99.99,,,-99.99,100.500000,,2013-03-04 23:00:00,
2013-03-04 17:52:00,53.0,25.0,29.97,ESE,114,5.0,-999.0,34,-99.99,,,-99.99,100.500000,,2013-03-04 23:52:00,
2013-03-04 18:00:00,52.0,27.0,29.99,ESE,102,5.0,-999.0,37,-99.99,,,-99.99,8.850000,,2013-03-05 00:00:00,
2013-03-04 18:52:00,52.0,27.0,29.99,ESE,102,5.0,-999.0,37,-99.99,,,-99.99,8.850000,,2013-03-05 00:52:00,
2013-03-04 19:00:00,52.0,27.0,29.97,ESE,109,5.0,-999.0,37,-99.99,,,-99.99,0.000000,,2013-03-05 01:00:00,
2013-03-04 19:52:00,52.0,27.0,29.97,ESE,109,5.0,-999.0,37,-99.99,,,-99.99,0.000000,,2013-03-05 01:52:00,
2013-03-04 20:00:00,52.0,29.0,29.99,ENE,63,4.0,-999.0,42,-99.99,,,-99.99,0.000000,,2013-03-05 02:00:00,
2013-03-04 20:53:00,52.0,29.0,29.99,ENE,63,4.0,-999.0,42,-99.99,,,-99.99,0.000000,,2013-03-05 02:53:00,
2013-03-04 21:00:00,51.0,30.0,29.99,ENE,62,4.0,-999.0,44,-99.99,,,-99.99,0.000000,,2013-03-05 03:00:00,
2013-03-04 21:52:00,51.0,30.0,29.99,ENE,62,4.0,-999.0,44,-99.99,,,-99.99,0.000000,,2013-03-05 03:52:00,
2013-03-04 22:00:00,54.0,29.0,30.02,NE,46,3.0,-999.0,39,-99.99,,,-99.99,0.000000,,2013-03-05 04:00:00,
2013-03-04 22:52:00,54.0,29.0,30.02,NE,46,3.0,-999.0,39,-99.99,,,-99.99,0.000000,,2013-03-05 04:52:00,